Volver al catálogo

METEOR 2-5 DEB

ActivoPO
NORAD 39605·DEBRIS·🇷🇺 Russia

Lanzado Oct 31, 1979 desde Plesetsk Cosmodrome

Loading…

Próximos Pases (próximas 24 horas)

TLE

ActualizadoSource: Space-Track

Época: Sep 12, 2026, 18:59 UTC

1 39605U 79095CG  26255.79145818  .00005984  00000-0  14006-2 0  9995
2 39605  81.1766  13.3489 0019281  63.5420  88.2288 14.54407051665434

Sigue METEOR 2-5 DEB en tiempo real con AllMySat

Download on the App Store